Back to catalog

STARLINK-37532

AliveCommunicationsVLEO
NORAD 69468·PAYLOAD·🇺🇸 United States

Launched Jun 8, 2026 from Cape Canaveral Space Force Station

Loading…

Next Passes (next 24 hours)

TLE

FreshSource: CelesTrak SupGP

Epoch: Sep 15, 2026, 03:21 UTC

1 69468C 26127AB  26258.14006944 -.00075819  00000+0 -21694-2 0  2585
2 69468  53.1571 190.7886 0001239  92.0959  93.8020 15.35434311    18

Track STARLINK-37532 in real time with AllMySat

Download on the App Store